This is the latest recevied weather packets stored in our database for station/object KB3MVG-13. If no packets are shown the sender has not sent any weather packets the latest 10 day(s).
| Time | Temp. | Humidity | Pressure | Rain* | Wind** | Luminosity | Snow |
|---|---|---|---|---|---|---|---|
| 1777879236 | 13.89° C | 24% | 1016.4 hPa | 0 mm | - | 0 W/m² | - |
| 1777876216 | 14.44° C | 23% | 1016.4 hPa | 0 mm | - | 0 W/m² | - |
| 1777875016 | 15.56° C | 21% | 1016.4 hPa | 0 mm | - | 0 W/m² | - |
| 1777874416 | 15.56° C | 21% | 1016.5 hPa | 0 mm | - | 0 W/m² | - |
| 1777873815 | 15.56° C | 21% | 1016.6 hPa | 0 mm | - | 0 W/m² | - |
| 1777872615 | 15° C | 22% | 1016.4 hPa | 0 mm | - | 0 W/m² | - |
| 1777870815 | 15.56° C | 22% | 1016.8 hPa | 0 mm | - | 0 W/m² | - |
| 1777867215 | 16.67° C | 22% | 1017.2 hPa | 0 mm | - | 0 W/m² | - |
| 1777863615 | 16.67° C | 22% | 1016.9 hPa | 0 mm | - | 0 W/m² | - |
| 1777863015 | 16.67° C | 22% | 1016.9 hPa | 0 mm | - | 0 W/m² | - |
| 1777862415 | 17.22° C | 21% | 1016.9 hPa | 0 mm | - | 0 W/m² | - |
| 1777860015 | 17.22° C | 22% | 1016.3 hPa | 0 mm | - | 0 W/m² | - |
| 1777859455 | 17.22° C | 22% | 1016.1 hPa | 0 mm | - | 2 W/m² | - |
| 1777853417 | 18.33° C | 19% | 1015.6 hPa | 0 mm | - | 75 W/m² | - |
| 1777852217 | 18.33° C | 19% | 1016.1 hPa | 0 mm | - | 45 W/m² | - |
| 1777847417 | 20° C | 14% | 1016 hPa | 0 mm | - | 192 W/m² | - |
| 1777845017 | 21.11° C | 12% | 1016.8 hPa | 0 mm | - | 261 W/m² | - |
| 1777839637 | 21.11° C | 12% | 1018.5 hPa | 0 mm | - | 622 W/m² | - |
| 1777833617 | 20° C | 14% | 1019.8 hPa | 0 mm | - | 398 W/m² | - |
| 1777832417 | 19.44° C | 15% | 1020.1 hPa | 0 mm | - | 553 W/m² | - |
| 1777828216 | 18.33° C | 17% | 1020.8 hPa | 0 mm | - | 426 W/m² | - |
| 1777827617 | 18.33° C | 16% | 1021 hPa | 0 mm | - | 379 W/m² | - |
| 1777826416 | 17.22° C | 18% | 1021.2 hPa | 0 mm | - | 326 W/m² | - |
| 1777825816 | 17.22° C | 21% | 1021.3 hPa | 0 mm | - | 324 W/m² | - |
| 1777822216 | 16.11° C | 21% | 1021.4 hPa | 0 mm | - | 320 W/m² | - |
* Rain latest hour (hover to see other rain measurements)
** Current wind speed in m/s (hover to see current wind gust speed)